Regional Weather Roundup
Issued by NWS

Home | Current Version | Previous Version | Text Only | Print | Product List | Glossary On
Versions: 1 2 3 4 5 6 7 8 9 10 11 12 13 14 15 16 17 18 19 20 21 22 23 24 25 26 27 28 29 30 31 32 33 34 35 36 37 38 39 40 41 42 43 44 45 46 47 48 49 50
000
ASUS43 KDTX 291501
RWRMI
MICHIGAN HOURLY REGIONAL WEATHER ROUNDUP
NATIONAL WEATHER SERVICE DETROIT/PONTIAC MI
1100 AM EDT MON MAY 29 2017

NOTE: "FAIR" INDICATES FEW OR NO CLOUDS BELOW 12,000 FEET WITH NO
SIGNIFICANT WEATHER AND/OR OBSTRUCTION TO VISIBILITY.

MIZ047>049-052>055-059>063-066>070-074>076-081>083-291600-
SOUTHEAST LOWER MICHIGAN

CITY           SKY/WX    TMP DP  RH WIND       PRES   REMARKS
ADRIAN         SUNNY     69  59  70 SW12      29.82F
ALMA           SUNNY     71  48  43 SW15G28   29.74F
ANN ARBOR      SUNNY     71  57  61 S8        29.80S
BAD AXE        SUNNY     69  53  55 SW7G16    29.75F
CARO           SUNNY     71  55  56 SW9       29.75S
DETROIT CITY   SUNNY     72  52  49 W9        29.80F
DETROIT        MOSUNNY   72  56  57 S13       29.82S
FLINT          SUNNY     72  51  47 SW13      29.77S
GROSSE ILE     PTSUNNY   68  60  75 S10       29.81S
HILLSDALE      SUNNY     70  54  56 SW8       29.82S
HOWELL         SUNNY     72  49  44 SW12      29.79S

CITY           SKY/WX    TMP DP  RH WIND       PRES   REMARKS
JACKSON        SUNNY     73  53  49 SW13      29.80S
LAMBERTVILLE   SUNNY     72  57  60 SW6       29.82F
LANSING        SUNNY     75  49  39 SW14G24   29.77S
LAPEER         FAIR      72  50  46 SW12      29.78S
MASON          SUNNY     73  52  48 S6        29.78S
MONROE         MOSUNNY   71  57  60 SW8       29.81F
MT. CLEMENS    SUNNY     74  55  51 SW10      29.79S
PONTIAC        MOSUNNY   70  50  49 S12       29.78F
PORT HOPE        N/A     71  56  58 MISG      29.72F
PORT HURON     SUNNY     70  50  49 SW7       29.79S
TRI CITIES     SUNNY     72  52  49 SW13      29.74S
MIDLAND        FAIR      73  48  41 SW9       29.72S
TROY           SUNNY     73  47  39 SW6G16    29.81S
SAGINAW HB     SUNNY     73  45  35 SW15      29.74S
$$
MIZ043>046-050>051-056>058-064>065-071>073-077>080-291600-
SOUTHWEST LOWER MICHIGAN

CITY           SKY/WX    TMP DP  RH WIND       PRES   REMARKS
BATTLE CREEK   SUNNY     73  55  53 SW14      29.80R
BENTON HARBOR  SUNNY     70  49  47 SW16      29.81R
BIG RAPIDS     SUNNY     69  45  41 W18G24    29.72R
COLDWATER      SUNNY     72  55  55 SW13      29.81S
FREMONT        FAIR      67  41  39 W17G24    29.75R
HOLLAND        SUNNY     68  48  48 W20G26    29.79R
GRAND RAPIDS   SUNNY     73  49  42 W24G31    29.76R
IONIA          FAIR      74  48  39 SW20G28   29.75S
KALAMAZOO      SUNNY     73  48  41 SW14G23   29.80R
LUDINGTON      SUNNY     59  51  74 SW9       29.71S
MARSHALL       SUNNY     72  54  52 SW12      29.80R
MOUNT PLEASANT SUNNY     71  47  41 SW13G20   29.71F
MUSKEGON       SUNNY     64  48  56 W13G18    29.78R
SOUTH HAVEN    SUNNY     68  51  53 W10G18    29.80R
$$
MIZ016>042-291600-
NORTHERN LOWER MICHIGAN

CITY           SKY/WX    TMP DP  RH WIND       PRES   REMARKS
ALPENA         SUNNY     68  48  48 W8        29.68F
BEAVER ISLAND  MOSUNNY   59  51  73 SW12      29.66F
BELLAIRE       MOSUNNY   60  51  73 SW3       29.69F
CADILLAC       SUNNY     67  46  46 W10       29.69S
CHARLEVOIX     LGT RAIN  58  49  72 SW8       29.70F
FRANKFORT      SUNNY     60  48  64 S7        29.69R
GAYLORD        MOSUNNY   63  44  50 W14G22    29.69R
GRAYLING       MOSUNNY   67  45  44 W10       29.70R
HARBOR SPRINGS CLOUDY    61  53  75 W7        29.68S
HOUGHTON LAKE  SUNNY     67  47  48 W8        29.70F
OSCODA         SUNNY     72  46  40 SW6       29.70F
PELLSTON       LGT RAIN  62  50  64 SW13G21   29.68R
ROGERS CITY    SUNNY     53  52  95 N6        29.69S
TRAVERSE CITY  MOSUNNY   65  48  54 W10       29.67F
$$
MIZ007>008-015-291600-
EASTERN UPPER MICHIGAN

CITY           SKY/WX    TMP DP  RH WIND       PRES   REMARKS
KINROSS        CLOUDY    54  52  93 S6        29.66S
MACKINAC ISLAN MOSUNNY   55  55 100 W7        29.66S
NEWBERRY       CLOUDY    54  52  95 SE8       29.62F FOG
S. S. MARIE    CLOUDY    58  52  80 S7        29.64F
MUNISING         N/A     62  52  69 VRB6      29.58F
$$
MIZ004>006-011>014-085-291600-
CENTRAL UPPER MICHIGAN

CITY           SKY/WX    TMP DP  RH WIND       PRES   REMARKS
MANISTIQUE     CLOUDY    52  49  89 SE7       29.63R
ESCANABA       PTSUNNY   58  51  78 SW12      29.63F
SAWYER-GWINN   CLOUDY    55  50  82 SW13      29.61S
$$
MIZ001>003-009>011-084-291600-
WESTERN UPPER MICHIGAN

CITY           SKY/WX    TMP DP  RH WIND       PRES   REMARKS
IRON MOUNTAIN  CLOUDY    59  47  64 SW12      29.62S
HOUGHTON       LGT RAIN  48  46  93 W12       29.57S FOG
COPPER HARBOR    N/A     45  44  97 N7        29.56R
IRONWOOD       CLOUDY    54  50  86 W10       29.64R
$$

ABBREVIATIONS USED IN REMARKS
   TC - TEMPERATURE IN CELSIUS
  WCI - WIND CHILL INDEX
   HX - HEAT INDEX
  VSB - VISIBILITY




USA.gov is the U.S. government's official web portal to all federal, state and local government web resources and services.